• Em Portugal
  • Lista de países
  • Para 7 dias
  • Temperatura da água
  • Mapas de satélite
  • Mapa do tempo
  • Widgets de tempo
  • user-avatar
    Iniciar Sessão

    Previsão horária em Tomislaw

    Hoje, 20 Julho, Sexta-feira

    Tempo Temperatura Precipitação Vento Pressão Humidade
    00:00 +18°C° 0 mm 1 m/s 745 mmHg 93%
    01:00 +16°C° 0 mm 1 m/s 745 mmHg 93%
    02:00 +16°C° 0 mm 1 m/s 745 mmHg 93%
    03:00 +16°C° 0 mm 1 m/s 745 mmHg 93%
    04:00 +15°C° 0 mm 1 m/s 745 mmHg 93%
    05:00 +18°C° 0 mm 1 m/s 745 mmHg 86%
    06:00 +19°C° 0 mm 1 m/s 745 mmHg 79%
    07:00 +20°C° 0 mm 2 m/s 745 mmHg 69%
    08:00 +21°C° 0 mm 2 m/s 745 mmHg 61%
    09:00 +24°C° 0 mm 2 m/s 745 mmHg 53%
    10:00 +25°C° 0 mm 3 m/s 745 mmHg 45%
    11:00 +26°C° 0 mm 3 m/s 745 mmHg 43%
    12:00 +26°C° 0 mm 3 m/s 745 mmHg 41%
    13:00 +28°C° 0 mm 3 m/s 744 mmHg 38%
    14:00 +28°C° 0 mm 3 m/s 744 mmHg 39%
    15:00 +28°C° 0 mm 3 m/s 744 mmHg 40%
    16:00 +28°C° 0 mm 3 m/s 744 mmHg 41%
    17:00 +26°C° 0 mm 3 m/s 744 mmHg 47%
    18:00 +25°C° 0 mm 2 m/s 744 mmHg 53%
    19:00 +24°C° 0 mm 2 m/s 743 mmHg 59%
    20:00 +22°C° 0 mm 1 m/s 744 mmHg 63%
    21:00 +21°C° 0 mm 1 m/s 744 mmHg 66%
    22:00 +19°C° 0 mm 1 m/s 744 mmHg 70%
    23:00 +19°C° 0 mm 1 m/s 744 mmHg 71%

    Amanhã, 21 Julho, Sábado

    Tempo Temperatura Precipitação Vento Pressão Humidade
    00:00 +18°C° 0 mm 1 m/s 744 mmHg 72%
    01:00 +18°C° 0 mm 1 m/s 744 mmHg 73%
    02:00 +18°C° 0 mm 1 m/s 744 mmHg 74%
    03:00 +16°C° 0 mm 1 m/s 743 mmHg 75%
    04:00 +16°C° 0 mm 1 m/s 743 mmHg 76%
    05:00 +19°C° 0 mm 1 m/s 743 mmHg 71%
    06:00 +21°C° 0 mm 1 m/s 743 mmHg 66%
    07:00 +23°C° 0 mm 1 m/s 744 mmHg 60%
    08:00 +24°C° 0 mm 1 m/s 744 mmHg 54%
    09:00 +26°C° 0 mm 1 m/s 743 mmHg 48%
    10:00 +28°C° 0 mm 1 m/s 743 mmHg 42%
    11:00 +28°C° 0 mm 1 m/s 743 mmHg 40%
    12:00 +29°C° 0 mm 1 m/s 743 mmHg 38%
    13:00 +30°C° 0 mm 1 m/s 743 mmHg 36%
    14:00 +30°C° 0 mm 1 m/s 743 mmHg 35%
    15:00 +29°C° 0 mm 1 m/s 742 mmHg 35%
    16:00 +29°C° 0 mm 1 m/s 742 mmHg 35%
    17:00 +28°C° 0 mm 1 m/s 742 mmHg 41%
    18:00 +27°C° 0 mm 1 m/s 742 mmHg 47%
    19:00 +25°C° 0 mm 2 m/s 742 mmHg 52%
    20:00 +24°C° 0 mm 2 m/s 742 mmHg 56%
    21:00 +21°C° 0 mm 2 m/s 742 mmHg 60%
    22:00 +19°C° 0 mm 2 m/s 743 mmHg 65%
    23:00 +19°C° 0 mm 2 m/s 743 mmHg 67%

    Depois de amanhã, 22 Julho, Domingo

    Tempo Temperatura Precipitação Vento Pressão Humidade
    00:00 +19°C° 0 mm 1 m/s 743 mmHg 70%
    01:00 +19°C° 0 mm 1 m/s 743 mmHg 73%
    02:00 +18°C° 0 mm 1 m/s 742 mmHg 75%
    03:00 +18°C° 0 mm 1 m/s 742 mmHg 76%
    04:00 +18°C° 0 mm 1 m/s 742 mmHg 78%
    05:00 +19°C° 0 mm 1 m/s 742 mmHg 73%
    06:00 +21°C° 0 mm 1 m/s 743 mmHg 69%
    07:00 +22°C° 0 mm 1 m/s 743 mmHg 64%
    08:00 +24°C° 0 mm 1 m/s 743 mmHg 58%
    09:00 +25°C° 0 mm 1 m/s 743 mmHg 52%
    10:00 +27°C° 0 mm 2 m/s 743 mmHg 46%
    11:00 +28°C° 0 mm 2 m/s 742 mmHg 43%
    12:00 +28°C° 0 mm 2 m/s 742 mmHg 40%
    13:00 +29°C° 0 mm 2 m/s 742 mmHg 37%
    14:00 +29°C° 0 mm 2 m/s 742 mmHg 36%
    15:00 +29°C° 0 mm 2 m/s 742 mmHg 36%
    16:00 +29°C° 0 mm 2 m/s 742 mmHg 35%
    17:00 +28°C° 0 mm 2 m/s 742 mmHg 41%
    18:00 +26°C° 0 mm 2 m/s 742 mmHg 47%
    19:00 +25°C° 0 mm 2 m/s 742 mmHg 53%
    20:00 +23°C° 0 mm 2 m/s 742 mmHg 57%
    21:00 +22°C° 0 mm 1 m/s 742 mmHg 61%
    22:00 +20°C° 0 mm 1 m/s 742 mmHg 65%
    23:00 +20°C° 0 mm 1 m/s 742 mmHg 66%

    23 Julho, Segunda-feira

    Tempo Temperatura Precipitação Vento Pressão Humidade
    00:00 +19°C° 0 mm 1 m/s 742 mmHg 68%
    01:00 +17°C° 0 mm 0 m/s 742 mmHg 69%
    02:00 +16°C° 0 mm 0 m/s 742 mmHg 70%
    03:00 +16°C° 0 mm 0 m/s 742 mmHg 71%
    04:00 +16°C° 0 mm 0 m/s 742 mmHg 72%
    05:00 +20°C° 0 mm 1 m/s 743 mmHg 68%
    06:00 +21°C° 0 mm 1 m/s 743 mmHg 64%
    07:00 +23°C° 0 mm 1 m/s 743 mmHg 60%
    08:00 +25°C° 0 mm 1 m/s 743 mmHg 55%
    09:00 +26°C° 0 mm 2 m/s 743 mmHg 51%
    10:00 +28°C° 0 mm 2 m/s 743 mmHg 47%
    11:00 +28°C° 0 mm 2 m/s 743 mmHg 45%
    12:00 +29°C° 0 mm 3 m/s 743 mmHg 43%
    13:00 +29°C° 0 mm 3 m/s 743 mmHg 42%
    14:00 +29°C° 0 mm 3 m/s 743 mmHg 44%
    15:00 +29°C° 0 mm 3 m/s 743 mmHg 46%
    16:00 +28°C° 0 mm 3 m/s 743 mmHg 48%
    17:00 +27°C° 0,1 mm 3 m/s 743 mmHg 53%
    18:00 +26°C° 0,1 mm 2 m/s 743 mmHg 58%
    19:00 +25°C° 0,1 mm 2 m/s 743 mmHg 63%
    20:00 +24°C° 0,3 mm 2 m/s 744 mmHg 70%
    21:00 +22°C° 0,3 mm 1 m/s 744 mmHg 78%
    22:00 +20°C° 0,3 mm 1 m/s 744 mmHg 85%
    23:00 +20°C° 0,1 mm 1 m/s 744 mmHg 86%

    24 Julho, Terça-feira

    Tempo Temperatura Precipitação Vento Pressão Humidade
    00:00 +20°C° 0,1 mm 1 m/s 744 mmHg 88%
    01:00 +19°C° 0,1 mm 1 m/s 744 mmHg 89%
    02:00 +19°C° 0 mm 1 m/s 744 mmHg 90%
    03:00 +19°C° 0 mm 1 m/s 744 mmHg 91%
    04:00 +18°C° 0 mm 1 m/s 744 mmHg 92%
    05:00 +19°C° 0 mm 1 m/s 744 mmHg 88%
    06:00 +20°C° 0 mm 1 m/s 745 mmHg 84%
    07:00 +20°C° 0 mm 2 m/s 745 mmHg 80%
    08:00 +23°C° 0,1 mm 2 m/s 745 mmHg 74%
    09:00 +24°C° 0,1 mm 2 m/s 745 mmHg 68%
    10:00 +25°C° 0,1 mm 3 m/s 745 mmHg 62%
    11:00 +26°C° 0,1 mm 3 m/s 745 mmHg 58%
    12:00 +27°C° 0,1 mm 3 m/s 744 mmHg 55%
    13:00 +27°C° 0,1 mm 3 m/s 744 mmHg 52%
    14:00 +27°C° 0 mm 3 m/s 744 mmHg 50%
    15:00 +28°C° 0 mm 3 m/s 744 mmHg 49%
    16:00 +28°C° 0 mm 3 m/s 744 mmHg 48%
    17:00 +27°C° 0 mm 3 m/s 744 mmHg 53%
    18:00 +26°C° 0 mm 2 m/s 744 mmHg 57%
    19:00 +25°C° 0 mm 2 m/s 744 mmHg 62%
    20:00 +23°C° 0 mm 1 m/s 744 mmHg 65%
    21:00 +22°C° 0 mm 1 m/s 744 mmHg 69%
    22:00 +21°C° 0 mm 1 m/s 744 mmHg 73%
    23:00 +20°C° 0 mm 1 m/s 744 mmHg 76%

    25 Julho, Quarta-feira

    Tempo Temperatura Precipitação Vento Pressão Humidade
    00:00 +20°C° 0 mm 1 m/s 744 mmHg 79%
    01:00 +19°C° 0 mm 1 m/s 744 mmHg 81%
    02:00 +19°C° 0 mm 1 m/s 744 mmHg 84%
    03:00 +18°C° 0 mm 1 m/s 744 mmHg 86%
    04:00 +18°C° 0 mm 1 m/s 744 mmHg 88%
    05:00 +19°C° 0 mm 1 m/s 744 mmHg 82%
    06:00 +21°C° 0 mm 1 m/s 745 mmHg 76%
    07:00 +23°C° 0 mm 1 m/s 745 mmHg 71%
    08:00 +24°C° 0 mm 1 m/s 745 mmHg 64%
    09:00 +26°C° 0 mm 1 m/s 745 mmHg 58%
    10:00 +27°C° 0 mm 2 m/s 745 mmHg 52%
    11:00 +28°C° 0 mm 2 m/s 745 mmHg 50%
    12:00 +28°C° 0 mm 2 m/s 744 mmHg 47%
    13:00 +29°C° 0 mm 2 m/s 744 mmHg 45%
    14:00 +29°C° 0 mm 2 m/s 744 mmHg 44%
    15:00 +29°C° 0 mm 2 m/s 744 mmHg 43%
    16:00 +29°C° 0 mm 2 m/s 744 mmHg 43%
    17:00 +28°C° 0 mm 2 m/s 744 mmHg 47%
    18:00 +27°C° 0 mm 2 m/s 743 mmHg 52%
    19:00 +26°C° 0 mm 1 m/s 743 mmHg 57%
    20:00 +25°C° 0 mm 1 m/s 744 mmHg 61%
    21:00 +23°C° 0 mm 1 m/s 744 mmHg 65%
    22:00 +22°C° 0 mm 1 m/s 744 mmHg 69%
    23:00 +21°C° 0 mm 1 m/s 744 mmHg 70%
    Mostrar mais